World > North America > United States > New York > North Sanford

Hourly North Sanford, NY Regional Weather

Feedback E-mail the Weather

Quick WX

North Sanford, NY Weather Maps

°F °C°F °C
North Sanford Weather Map
UTC Time: 8/12/2022, 22:14
Your Time:

North Sanford, NY Regional Weather

Expires:202208122300;;990995
ASUS41 KALY 122210
RWRALY

NEW YORK STATE HOURLY WEATHER ROUNDUP
NATIONAL WEATHER SERVICE ALBANY NY
600 PM EDT FRI AUG 12 2022

NOTE: "FAIR" INDICATES FEW OR NO CLOUDS BELOW 12,000 FEET WITH NO
SIGNIFICANT WEATHER AND/OR NO OBSTRUCTIONS TO VISIBILITY.


NYZ005>009-017-018-044>046-055-056-122300-
CENTRAL

  
CITY           SKY/WX    TMP DP  RH WIND       PRES   REMARKS
FULTON         SUNNY     73  53  49 NW9       30.11S                  
SYRACUSE       MOSUNNY   74  48  39 NW12G21   30.11S                  
ROME           CLOUDY    70  50  49 W14       30.10R                  
ELMIRA         SUNNY     75  43  31 NE14      30.10S                  
BINGHAMTON     MOSUNNY   70  42  36 N16G23    30.11S                  
MONTICELLO     SUNNY     74  41  30 NW10      30.08R                  
$$


SKY/WX - Weather  TMP - Temperature  DP - Dew Point  RH - Humidity
WIND - Wind Direction/Speed PRES - Barometric Pressure VSB - Visibility
WCI - Wind Chill Index E13G22 Wind - East Wind 13 mph/Gusts of 22 mph

Trending Headlines

North Sanford Radar Loop



North Sanford Quick Facts


National Two Day Weather Forecast


E-mail the North Sanford Weather Forecast

Voice your opinion or tell us about page issues...